Location: Bennemühlen
(52.5740°N, 9.7135°E)
Time: 03:10:56
(UTC+00:00)

Vanguard 2 Rocket - Pass Details

Date: 25 February 2026
Orbit: 553 x 3287 km, 32.9° (Epoch: 5 March)

Event Time Altitude Azimuth Distance (km) Brightness Sun altitude
Rises 10:18:53 0° 232° (SW) 7,012 11.6 26.3°
Reaches altitude 10° 10:24:01 10° 224° (SW) 6,150 11.5 26.6°
Maximum altitude 10:40:47 36° 168° (SSE) 4,279 12.9 27.4°
Drops below altitude 10° 10:55:04 10° 111° (ESE) 5,280 11.3 27.9°
Sets 10:59:02 0° 103° (ESE) 5,960 11.3 28.0°
